Cloud_Cover
92 100 41 8 34 7 5 20 32 5 5 5 36 76 93 7 4 2 2 5 29 60 47 35 10 0 0 0 0 0 0 0 0 0 0 8 1 0 0 0 0 0 0
100 91 35 96 97 77 81 54 90 56 69 25 5 5 5 5 1 0 2 5 4 5 5 2 0 0 0 0 0 0 0 0 0 0 0 19 93 0 0 0 0 0 0
99 68 64 100 100 100 100 100 88 92 100 89 20 76 5 5 5 0 0 0 0 0 0 0 1 0 5 48 50 3 10 1 5 6 42 25 0 0 0 0 0 0 0
53 78 93 100 100 100 100 100 100 100 96 89 90 25 5 5 6 5 13 4 4 2 5 21 81 72 5 55 2 6 26 20 5 45 56 72 0 5 5 0 0 0 0
16 33 99 92 100 100 100 100 100 100 100 100 100 98 70 14 42 91 35 70 79 89 100 100 66 32 5 5 60 100 84 5 2 47 0 5 18 5 1 0 0 0 0
73 100 100 100 100 100 100 100 100 100 100 100 100 100 100 100 100 100 81 100 100 100 100 100 94 99 5 100 100 100 70 0 4 3 5 5 5 6 1 0 0 0 0
98 100 100 100 100 100 100 100 100 100 100 100 100 100 100 100 100 100 100 100 100 100 100 100 61 100 100 100 100 96 5 14 6 5 5 5 3 4 0 0 0 0 0
100 100 100 100 100 100 100 100 100 100 100 100 100 100 100 100 100 100 100 100 100 100 100 100 100 100 100 87 93 20 85 5 5 35 48 8 1 0 0 0 0 0 0
100 100 100 100 100 100 100 100 100 100 100 100 100 100 100 100 100 100 100 100 100 100 100 100 100 100 100 93 17 5 5 1 2 3 6 4 0 0 0 0 0 0 0
100 100 100 100 100 100 100 100 100 100 100 100 100 100 100 100 100 100 100 100 100 98 68 100 100 94 6 6 26 5 0 1 0 0 0 0 0 0 0 0 0 0 0
100 100 100 100 100 100 100 100 100 100 100 100 100 100 100 100 100 100 100 100 100 99 100 76 54 5 78 5 3 0 4 4 0 0 0 0 0 0 0 0 0 0 0
100 100 100 100 100 100 100 100 100 100 100 100 100 100 100 100 100 100 92 100 100 100 100 74 18 62 5 4 3 3 5 3 0 0 0 1 0 0 4 0 0 0 0
100 100 100 100 100 100 100 100 100 100 100 100 100 100 100 100 100 96 97 99 98 93 100 95 100 70 5 4 4 0 4 0 2 0 88 96 92 2 5 0 0 0 0
100 100 100 100 100 100 100 100 100 100 100 100 100 100 100 100 100 100 97 79 100 92 65 43 49 89 54 99 71 97 100 100 41 100 94 72 43 6 0 0 0 0 0
100 100 100 100 100 100 100 100 100 100 100 100 100 100 100 100 100 80 84 64 100 58 89 100 79 43 82 77 47 25 100 100 100 39 17 77 5 1 3 2 2 0 0
100 100 100 100 100 100 100 100 100 100 100 100 100 100 100 99 94 99 72 100 99 99 86 100 98 92 100 100 100 100 100 100 100 85 44 2 5 5 5 4 5 5 0
100 100 100 100 100 100 100 100 100 100 100 100 100 100 100 100 100 100 100 63 100 100 100 92 100 82 100 100 10 14 8 59 84 43 51 15 0 0 7 92 5 4 5
100 100 100 100 100 100 100 100 100 100 100 100 100 100 100 99 99 100 100 100 100 100 100 89 42 5 40 37 95 27 5 5 2 0 0 0 0 0 5 8 13 6 3
100 100 100 100 100 100 100 100 100 98 100 100 100 97 96 100 100 100 86 90 100 100 95 76 5 5 5 0 0 1 0 0 0 0 0 1 35 95 100 100 100 100 97
100 100 100 100 100 100 100 100 94 89 100 99 99 71 37 18 91 87 60 37 96 100 88 94 8 5 3 0 0 0 0 0 2 0 0 3 1 68 100 100 100 96 82
77 100 100 45 14 66 79 72 100 100 100 45 17 9 4 1 0 0 0 1 4 41 5 0 0 0 0 0 0 0 0 0 0 0 0 0 1 49 100 100 98 31 5
93 64 59 100 94 57 42 8 5 25 18 7 0 3 4 5 5 5 5 34 5 1 5 4 0 0 0 0 0 0 4 3 0 0 0 0 4 6 34 59 41 88 65
49 20 56 100 13 5 5 5 90 6 0 0 0 0 5 26 64 7 26 27 5 5 5 1 0 0 0 0 0 4 3 5 4 0 0 0 0 0 3 5 73 51 80
16 5 53 22 5 5 70 87 36 0 0 2 26 0 5 29 72 78 15 4 5 5 1 0 0 3 1 2 4 5 1 10 6 5 5 3 1 0 0 0 8 80 17
22 11 64 31 24 94 1 57 0 93 99 14 5 24 83 89 91 5 0 5 5 5 0 0 5 5 5 5 5 5 5 5 5 5 2 0 0 0 0 3 5 7 5
65 0 26 70 92 2 0 8 0 0 5 5 13 100 100 92 6 3 4 5 5 0 1 0 2 16 16 5 4 3 5 12 30 48 3 3 5 0 0 0 0 5 1